Temp
-8 -8 -8 -8 -8 -9 -9 -8 -8 -8 -9 -9 -9 -8 -9 -9 -9 -9 -9 -9 -9 -9 -9 -9 -10 -10 -10 -10 -10 -10 -11 -10 -11 -12 -11 -11 -11 -12 -11 -11 -11 -10 -10
-8 -8 -9 -9 -9 -9 -9 -9 -8 -9 -9 -9 -9 -9 -9 -9 -9 -9 -9 -9 -9 -10 -10 -10 -10 -10 -11 -11 -11 -11 -10 -10 -11 -12 -12 -12 -12 -12 -11 -12 -12 -11 -10
-8 -8 -9 -9 -9 -9 -9 -9 -9 -9 -9 -9 -9 -9 -9 -9 -9 -9 -10 -10 -10 -10 -10 -10 -11 -10 -11 -11 -11 -11 -11 -11 -12 -13 -13 -13 -13 -13 -12 -12 -12 -11 -11
-7 -7 -8 -9 -9 -10 -10 -10 -10 -10 -10 -10 -10 -10 -10 -9 -9 -10 -10 -10 -11 -11 -11 -11 -11 -12 -12 -12 -12 -12 -13 -13 -13 -13 -13 -14 -13 -13 -13 -12 -12 -12 -11
-7 -7 -8 -10 -10 -11 -11 -10 -10 -10 -11 -10 -10 -10 -10 -10 -10 -10 -11 -11 -12 -11 -12 -12 -12 -12 -12 -12 -12 -13 -14 -14 -13 -13 -14 -14 -14 -13 -13 -12 -12 -12 -12
-7 -7 -9 -7 -10 -10 -10 -10 -10 -10 -11 -10 -10 -11 -11 -10 -11 -11 -11 -11 -12 -12 -11 -12 -12 -12 -12 -12 -12 -13 -14 -14 -14 -13 -14 -14 -14 -13 -12 -12 -11 -11 -11
-8 -8 -9 -9 -10 -10 -9 -10 -11 -10 -11 -11 -11 -12 -11 -11 -11 -12 -11 -12 -12 -12 -12 -12 -13 -13 -13 -12 -13 -14 -14 -14 -14 -14 -14 -14 -13 -13 -13 -12 -12 -11 -11
-8 -8 -9 -7 -10 -10 -9 -10 -11 -11 -11 -11 -12 -12 -11 -12 -12 -12 -12 -12 -12 -12 -12 -13 -13 -13 -13 -13 -13 -15 -15 -15 -15 -14 -14 -14 -13 -13 -13 -13 -12 -12 -10
-8 -8 -9 -8 -10 -10 -11 -11 -11 -11 -12 -12 -12 -12 -12 -12 -12 -12 -12 -13 -12 -13 -13 -13 -13 -13 -13 -13 -13 -14 -15 -15 -15 -15 -15 -15 -15 -14 -13 -13 -12 -12 -11
-9 -8 -9 -10 -10 -11 -11 -11 -12 -12 -12 -13 -14 -12 -12 -13 -12 -12 -12 -12 -13 -13 -13 -13 -13 -13 -13 -14 -14 -15 -15 -15 -15 -15 -15 -16 -16 -15 -14 -13 -13 -12 -11
-9 -9 -10 -10 -11 -11 -11 -11 -12 -12 -11 -12 -12 -14 -12 -12 -13 -12 -13 -13 -13 -13 -13 -13 -14 -13 -14 -14 -14 -15 -15 -15 -15 -15 -15 -15 -16 -15 -14 -13 -12 -12 -12
-10 -10 -10 -10 -11 -11 -11 -11 -11 -11 -10 -12 -12 -13 -13 -12 -12 -13 -13 -13 -13 -13 -14 -14 -14 -14 -14 -14 -15 -14 -14 -14 -14 -15 -15 -15 -16 -15 -14 -13 -13 -12 -12
-10 -10 -10 -11 -11 -11 -11 -11 -12 -12 -12 -12 -12 -13 -13 -13 -13 -13 -13 -13 -14 -14 -14 -14 -14 -14 -14 -14 -15 -15 -15 -15 -15 -15 -15 -15 -16 -15 -14 -13 -12 -12 -12
-10 -10 -10 -11 -11 -11 -11 -12 -12 -12 -12 -12 -13 -12 -13 -13 -13 -13 -14 -14 -14 -15 -15 -15 -14 -14 -14 -14 -15 -15 -15 -15 -15 -15 -15 -15 -16 -15 -15 -14 -12 -12 -12
-10 -10 -11 -11 -11 -11 -12 -12 -11 -12 -12 -13 -13 -13 -13 -13 -14 -14 -15 -15 -15 -15 -15 -15 -15 -15 -15 -15 -16 -16 -16 -15 -15 -15 -15 -15 -16 -16 -15 -14 -13 -13 -13
-11 -11 -11 -12 -12 -12 -12 -13 -14 -13 -13 -14 -14 -14 -14 -14 -15 -15 -15 -15 -15 -15 -15 -15 -15 -15 -15 -16 -16 -16 -16 -16 -15 -15 -15 -15 -15 -17 -15 -14 -14 -13 -13
-12 -11 -12 -11 -12 -13 -13 -13 -14 -14 -14 -14 -15 -15 -15 -15 -15 -15 -15 -15 -15 -16 -16 -15 -15 -15 -15 -16 -17 -16 -16 -16 -16 -15 -15 -15 -15 -15 -16 -14 -14 -12 -13
-12 -12 -12 -12 -12 -13 -13 -14 -14 -14 -14 -14 -15 -15 -15 -14 -15 -15 -15 -15 -16 -16 -16 -15 -15 -16 -16 -16 -16 -17 -16 -16 -16 -16 -15 -15 -15 -15 -15 -16 -15 -13 -12
-11 -11 -12 -13 -14 -14 -14 -14 -15 -14 -14 -14 -15 -15 -15 -15 -15 -15 -15 -16 -16 -16 -16 -16 -16 -16 -16 -17 -16 -16 -16 -16 -16 -16 -15 -15 -15 -15 -15 -15 -15 -14 -14
-12 -13 -13 -14 -15 -15 -14 -15 -15 -15 -15 -15 -15 -15 -15 -15 -15 -16 -16 -16 -16 -16 -16 -17 -17 -17 -17 -17 -17 -17 -17 -17 -17 -16 -16 -15 -15 -15 -15 -14 -14 -16 -14
-14 -14 -14 -15 -15 -15 -15 -16 -16 -15 -15 -16 -16 -15 -15 -16 -16 -16 -16 -16 -16 -16 -17 -17 -17 -17 -17 -17 -17 -17 -17 -17 -17 -16 -16 -16 -15 -15 -15 -14 -14 -14 -15
-15 -15 -15 -16 -16 -16 -16 -16 -16 -16 -15 -15 -16 -16 -16 -16 -17 -17 -17 -17 -17 -17 -17 -17 -17 -17 -17 -17 -17 -17 -17 -17 -17 -17 -16 -16 -16 -15 -15 -14 -14 -14 -14
-16 -16 -16 -16 -16 -16 -16 -16 -16 -16 -17 -17 -17 -17 -17 -17 -17 -17 -18 -18 -18 -18 -18 -18 -18 -18 -18 -18 -18 -18 -17 -17 -17 -17 -17 -16 -16 -15 -15 -15 -14 -14 -14
-16 -16 -16 -16 -16 -16 -16 -17 -17 -17 -17 -17 -17 -18 -18 -18 -18 -18 -18 -18 -18 -18 -18 -18 -18 -18 -18 -18 -18 -18 -18 -18 -17 -17 -17 -17 -16 -16 -15 -15 -15 -14 -14
-16 -16 -16 -16 -17 -16 -16 -16 -17 -17 -17 -17 -18 -18 -18 -18 -18 -18 -18 -18 -18 -18 -18 -18 -18 -18 -19 -19 -19 -19 -19 -18 -18 -18 -17 -17 -17 -16 -16 -15 -15 -14 -14
-16 -16 -16 -16 -17 -17 -17 -17 -17 -18 -18 -18 -18 -18 -19 -19 -19 -18 -18 -18 -19 -19 -19 -19 -19 -19 -19 -20 -20 -20 -19 -19 -19 -19 -18 -18 -18 -17 -16 -16 -16 -15 -15
Height
5877 5877 5876 5873 5870 5867 5865 5864 5862 5860 5858 5855 5852 5849 5846 5842 5839 5836 5833 5829 5824 5819 5815 5811 5806 5802 5797 5792 5787 5783 5779 5777 5775 5772 5769 5764 5762 5762 5761 5760 5761 5763 5767
5871 5870 5868 5866 5862 5859 5857 5856 5856 5855 5851 5847 5844 5841 5837 5835 5832 5829 5825 5820 5815 5810 5805 5801 5796 5792 5787 5780 5775 5771 5766 5761 5759 5757 5756 5752 5750 5748 5749 5749 5747 5747 5749
5866 5863 5860 5856 5854 5852 5850 5849 5847 5845 5842 5838 5835 5833 5830 5826 5823 5820 5816 5810 5805 5800 5796 5791 5785 5780 5775 5769 5762 5758 5753 5747 5743 5741 5743 5740 5738 5734 5735 5733 5733 5733 5732
5860 5856 5852 5849 5847 5844 5842 5841 5838 5836 5833 5830 5827 5824 5821 5817 5814 5810 5807 5800 5796 5791 5785 5779 5774 5769 5765 5759 5752 5745 5739 5735 5732 5728 5728 5728 5725 5722 5720 5718 5720 5716 5718
5852 5848 5844 5840 5838 5835 5833 5829 5828 5826 5823 5822 5819 5816 5813 5809 5805 5801 5795 5789 5786 5782 5776 5770 5765 5760 5755 5748 5741 5734 5730 5726 5723 5719 5715 5715 5713 5708 5704 5703 5702 5700 5702
5843 5840 5834 5836 5821 5825 5822 5817 5820 5817 5814 5813 5809 5807 5805 5800 5795 5790 5786 5781 5775 5771 5765 5760 5756 5751 5745 5738 5732 5724 5721 5716 5712 5709 5705 5700 5698 5693 5690 5683 5680 5679 5685
5837 5833 5823 5823 5821 5821 5816 5812 5812 5809 5806 5803 5801 5799 5795 5790 5786 5782 5778 5772 5765 5760 5757 5752 5746 5740 5734 5728 5721 5714 5711 5706 5702 5699 5695 5689 5683 5677 5672 5667 5663 5660 5661
5830 5825 5821 5785 5807 5812 5807 5804 5802 5799 5798 5794 5791 5788 5785 5779 5777 5771 5765 5760 5756 5753 5748 5742 5736 5731 5726 5719 5712 5705 5701 5696 5692 5688 5683 5677 5671 5661 5655 5653 5647 5644 5643
5821 5815 5814 5810 5807 5805 5802 5797 5792 5788 5783 5781 5780 5780 5777 5770 5766 5761 5757 5752 5746 5743 5739 5733 5728 5722 5716 5709 5702 5698 5693 5688 5683 5680 5675 5667 5658 5650 5644 5638 5634 5628 5629
5806 5805 5803 5802 5801 5798 5791 5786 5781 5772 5768 5768 5768 5769 5764 5758 5755 5750 5745 5742 5738 5732 5728 5723 5717 5714 5706 5699 5693 5691 5686 5682 5677 5673 5666 5659 5650 5640 5634 5626 5619 5616 5615
5795 5794 5792 5791 5788 5785 5780 5776 5770 5758 5753 5756 5755 5756 5754 5750 5746 5741 5736 5733 5726 5722 5717 5712 5708 5704 5696 5690 5686 5682 5679 5675 5671 5667 5661 5655 5645 5634 5626 5617 5610 5608 5607
5787 5783 5782 5781 5775 5772 5769 5764 5760 5753 5750 5754 5752 5750 5743 5740 5736 5731 5727 5721 5716 5711 5705 5700 5699 5694 5686 5680 5678 5674 5672 5668 5665 5661 5655 5647 5639 5628 5619 5610 5605 5606 5606
5778 5774 5770 5767 5764 5761 5758 5756 5753 5750 5747 5743 5739 5736 5734 5730 5726 5722 5716 5712 5707 5700 5693 5692 5690 5683 5676 5672 5669 5667 5665 5661 5659 5655 5649 5641 5632 5622 5613 5604 5602 5602 5604
5762 5759 5754 5752 5752 5750 5748 5747 5742 5740 5734 5734 5731 5727 5722 5718 5714 5709 5706 5702 5696 5687 5685 5683 5679 5671 5667 5665 5661 5659 5658 5655 5652 5649 5644 5637 5628 5617 5609 5601 5597 5598 5600
5748 5747 5747 5745 5741 5739 5739 5735 5731 5727 5722 5719 5718 5715 5712 5707 5702 5699 5695 5690 5682 5678 5677 5673 5668 5663 5659 5656 5653 5651 5649 5648 5646 5643 5638 5633 5624 5615 5607 5600 5596 5597 5597
5737 5736 5735 5735 5733 5729 5725 5722 5717 5717 5714 5708 5704 5702 5699 5694 5691 5687 5681 5676 5673 5672 5668 5664 5661 5656 5653 5650 5647 5646 5644 5642 5639 5637 5633 5629 5623 5615 5606 5600 5593 5593 5597
5730 5727 5726 5722 5718 5715 5712 5707 5704 5699 5696 5694 5692 5690 5687 5683 5676 5671 5669 5668 5666 5662 5659 5657 5654 5650 5647 5645 5642 5640 5638 5636 5634 5631 5628 5625 5620 5614 5607 5600 5591 5593 5596
5717 5714 5711 5708 5705 5702 5698 5694 5692 5689 5685 5682 5681 5676 5672 5669 5666 5664 5662 5658 5656 5651 5651 5649 5646 5644 5641 5639 5636 5633 5632 5630 5629 5627 5624 5621 5618 5613 5607 5600 5594 5591 5594
5704 5700 5696 5693 5689 5687 5685 5683 5680 5678 5675 5671 5668 5666 5662 5660 5657 5656 5653 5650 5646 5644 5642 5641 5639 5636 5635 5633 5630 5628 5625 5624 5622 5621 5620 5617 5614 5611 5607 5602 5596 5592 5591
5689 5686 5684 5682 5680 5678 5677 5674 5670 5665 5663 5661 5658 5655 5652 5649 5647 5645 5643 5640 5638 5636 5634 5633 5631 5629 5627 5626 5624 5622 5620 5618 5617 5616 5614 5612 5610 5607 5605 5601 5598 5595 5591
5679 5675 5673 5671 5668 5667 5665 5662 5658 5655 5652 5649 5647 5645 5642 5638 5637 5634 5632 5630 5629 5627 5626 5625 5623 5621 5619 5618 5617 5615 5614 5613 5612 5610 5609 5608 5606 5604 5602 5601 5598 5595 5592
5668 5667 5664 5662 5660 5657 5655 5652 5649 5644 5641 5638 5635 5634 5632 5630 5629 5626 5623 5621 5620 5618 5617 5616 5615 5613 5612 5611 5610 5609 5608 5607 5606 5605 5604 5604 5602 5601 5600 5598 5595 5595 5592
5657 5654 5652 5649 5648 5645 5642 5639 5636 5634 5630 5629 5626 5625 5623 5621 5620 5618 5615 5614 5613 5611 5609 5608 5607 5605 5604 5604 5603 5602 5601 5601 5600 5599 5599 5598 5598 5597 5595 5594 5593 5590 5590
5644 5642 5640 5638 5636 5633 5630 5628 5627 5625 5624 5622 5620 5618 5615 5613 5611 5608 5606 5607 5605 5603 5602 5600 5599 5598 5596 5596 5595 5594 5593 5593 5593 5593 5593 5592 5591 5591 5591 5590 5589 5589 5587
5633 5631 5629 5627 5625 5624 5623 5622 5620 5618 5616 5614 5612 5609 5606 5605 5604 5601 5599 5599 5597 5595 5594 5592 5591 5590 5588 5587 5587 5586 5584 5584 5584 5584 5585 5585 5585 5584 5584 5585 5585 5584 5584
5625 5622 5621 5619 5618 5616 5615 5613 5610 5608 5606 5605 5603 5600 5597 5596 5595 5593 5591 5590 5589 5587 5585 5585 5583 5582 5580 5579 5579 5579 5578 5577 5577 5577 5577 5577 5577 5577 5577 5577 5578 5578 5578
Wind_Speed
26 28 28 30 31 32 30 29 27 28 32 29 29 28 29 31 33 35 36 38 40 41 42 42 41 42 43 47 47 45 46 44 44 40 39 39 42 39 39 42 49 53 53
26 29 30 32 33 33 33 32 30 31 30 30 30 30 30 32 35 37 39 41 43 43 41 42 42 45 45 44 43 44 47 49 47 44 35 37 38 42 42 42 42 48 56
25 27 29 30 31 32 35 34 32 33 32 32 33 32 34 35 38 40 40 42 43 43 43 45 45 47 44 42 41 45 49 51 48 39 31 34 35 39 40 40 41 45 49
33 32 32 36 34 34 37 33 37 36 34 34 35 36 37 38 40 44 44 45 46 44 43 43 41 40 41 43 44 45 41 39 38 37 35 34 37 38 40 44 43 46 45
36 36 35 38 35 33 39 45 41 42 34 44 38 38 39 38 41 43 45 47 46 46 40 39 38 37 42 45 47 44 39 41 37 36 36 36 37 41 44 47 49 52 51
36 38 38 34 31 36 35 37 45 46 38 40 42 41 41 38 40 43 43 49 48 39 36 36 36 39 43 45 47 38 40 41 37 40 37 37 39 44 45 48 50 50 52
39 40 43 48 33 44 38 40 48 51 44 45 46 44 38 39 43 52 32 41 35 32 32 37 38 41 44 45 41 37 36 36 37 35 35 40 45 49 48 40 42 48 50
47 44 42 31 39 40 49 49 46 50 45 48 48 45 37 40 40 36 41 38 27 37 37 38 40 43 45 43 40 36 36 35 36 35 38 44 47 52 41 32 38 45 48
39 44 41 43 42 44 47 48 51 54 54 43 48 46 39 38 39 37 48 39 47 41 43 41 42 44 44 41 34 35 34 31 34 32 36 43 49 50 43 38 38 45 48
43 45 44 42 41 42 43 46 52 65 58 43 45 41 37 36 36 43 44 46 45 44 44 41 41 42 41 38 35 36 26 28 30 32 33 41 48 46 44 43 44 29 38
48 45 45 43 42 41 44 52 54 58 55 36 40 44 41 41 38 41 42 48 49 48 45 40 42 40 37 35 32 29 26 27 27 30 33 35 43 39 39 41 28 23 20
46 46 44 39 39 43 43 37 44 40 19 39 45 39 41 35 40 44 46 47 45 43 39 38 41 39 33 31 29 28 27 25 26 29 35 34 39 33 35 34 26 18 19
46 46 43 42 41 39 38 34 38 43 56 39 36 49 35 36 42 44 44 44 42 40 36 36 36 36 32 30 30 28 28 25 28 29 33 33 43 28 28 23 25 21 19
42 42 42 41 42 39 37 50 50 49 42 57 52 46 40 42 42 40 38 39 36 32 32 31 33 32 30 31 32 29 29 26 28 27 31 32 43 26 27 25 16 18 21
37 38 38 39 50 37 45 55 53 54 57 55 46 43 43 42 38 35 35 32 29 29 29 30 31 30 30 30 29 29 25 24 26 25 28 29 37 33 24 19 10 13 17
46 45 46 40 51 51 48 57 55 56 51 45 45 39 42 40 35 33 33 30 28 28 26 29 31 31 30 25 22 21 21 21 22 22 24 25 27 37 26 17 6 12 13
47 54 50 57 53 50 53 50 55 54 49 52 45 44 45 42 39 36 33 31 28 26 28 30 31 29 28 23 25 24 24 22 21 21 23 23 24 27 32 15 15 8 14
54 55 54 54 53 49 48 47 47 46 50 43 49 52 48 44 40 35 34 33 30 27 29 30 28 28 27 24 23 21 23 23 22 22 25 23 22 21 26 30 16 5 13
56 57 54 52 53 43 44 45 44 48 45 41 43 42 40 36 33 34 34 32 28 28 29 29 28 27 27 27 24 24 23 22 20 19 20 20 21 20 21 21 27 8 5
50 54 54 50 48 52 54 47 39 43 39 36 36 39 42 38 37 37 35 33 31 30 30 29 29 30 29 29 26 23 22 20 21 20 19 19 20 20 18 19 18 20 10
45 48 49 50 51 49 46 45 38 33 33 37 37 40 40 38 37 36 36 35 34 33 30 29 29 29 30 28 26 24 22 20 20 21 20 18 18 18 19 17 16 13 20
43 44 44 44 41 41 41 42 42 38 33 39 40 40 37 37 36 36 34 32 30 28 27 27 26 25 24 22 22 21 22 22 21 20 20 19 20 19 18 16 17 15 11
39 39 40 40 40 39 40 39 38 38 38 38 32 31 34 36 37 34 26 22 23 25 26 26 27 27 26 25 24 23 23 23 22 21 21 21 20 21 20 19 17 16 15
36 36 35 33 29 30 30 28 28 30 32 33 32 32 35 33 31 30 26 25 27 27 27 27 27 28 28 28 28 28 28 27 27 26 24 24 24 21 20 20 20 17 17
31 31 30 26 23 25 25 26 28 30 32 32 31 32 32 29 27 28 29 28 27 26 25 26 27 27 27 28 29 29 28 26 24 23 23 23 23 24 22 21 21 22 19
24 23 22 22 25 26 27 29 29 30 31 29 27 28 29 28 28 27 28 27 25 27 28 26 26 25 24 23 21 21 21 19 18 19 21 21 21 23 24 23 22 22 22
Wind_Direction
290 289 293 296 298 298 297 296 297 296 293 294 298 302 304 305 305 307 309 311 312 312 313 314 313 314 312 311 311 308 305 302 299 298 289 273 266 266 268 269 262 255 248
291 291 294 294 296 293 291 292 292 294 294 296 301 306 306 303 303 307 311 312 312 312 311 312 315 315 310 308 308 306 302 301 298 299 287 274 266 266 266 264 265 261 253
308 299 291 288 289 285 288 291 293 296 298 298 303 306 304 303 306 310 310 310 312 313 315 316 316 311 309 306 305 303 301 300 300 296 282 276 274 273 272 268 266 260 258
311 305 295 288 282 281 287 289 287 292 295 299 302 304 305 306 308 311 313 315 316 314 315 313 308 309 306 303 304 307 306 305 304 298 291 284 279 275 273 266 265 266 263
310 302 300 281 279 280 285 285 286 286 283 296 300 301 302 306 308 314 317 315 314 310 310 308 308 309 302 303 303 304 296 306 300 299 294 293 290 287 279 272 270 267 266
308 302 290 271 264 282 280 283 292 289 295 293 293 300 303 307 308 311 307 308 313 308 310 306 304 306 302 302 306 304 300 298 292 295 297 297 295 293 291 285 274 271 264
317 311 276 294 286 291 285 293 289 288 295 289 293 299 305 299 301 316 304 303 307 307 308 305 308 308 305 305 305 302 301 297 296 297 293 295 301 305 303 286 272 268 263
303 307 295 278 291 286 283 286 284 283 283 284 289 294 296 291 293 298 321 306 300 311 309 308 308 307 307 308 304 299 301 300 304 301 303 306 307 309 303 291 268 257 257
299 294 291 285 285 288 288 287 287 286 279 277 284 293 294 304 315 300 313 307 309 309 310 310 308 307 307 308 304 306 303 299 301 303 314 318 315 310 303 301 299 261 256
291 294 293 289 291 291 290 294 292 302 276 268 274 286 292 326 314 310 314 311 309 312 306 305 301 302 305 308 307 310 300 302 296 307 307 321 321 309 305 299 303 277 264
292 291 288 285 283 286 285 299 307 306 267 269 277 276 288 315 310 309 308 308 309 307 302 301 299 301 303 307 309 307 300 307 300 307 305 308 325 309 305 307 289 292 253
293 291 285 281 283 289 294 296 313 305 257 288 273 297 317 312 310 310 308 309 306 302 300 299 297 302 303 307 298 298 299 307 303 306 316 309 331 318 310 306 285 281 248
289 283 281 282 284 289 303 289 296 309 287 284 268 319 312 309 311 312 312 307 298 300 302 300 302 305 304 303 300 294 295 302 303 303 313 314 334 327 321 305 272 263 248
284 283 283 282 287 289 285 304 306 294 292 300 306 303 303 309 312 314 308 296 296 300 302 301 304 306 304 305 303 295 290 294 296 300 308 318 322 342 332 313 252 243 248
283 297 295 288 289 294 297 304 291 295 299 300 302 302 305 308 311 309 301 300 304 302 297 303 308 310 310 308 300 292 287 289 292 298 309 319 320 349 348 327 269 252 248
301 292 293 301 292 293 293 298 301 290 293 300 307 308 312 311 309 307 308 309 304 299 301 306 309 311 310 305 297 293 297 297 296 300 307 317 323 337 350 344 344 209 230
286 278 285 295 294 296 299 299 301 295 288 301 302 305 310 310 311 311 308 304 299 298 302 301 304 306 303 299 295 290 290 294 302 306 310 314 322 327 347 350 19 174 221
286 286 287 286 291 296 295 291 296 293 287 298 302 307 308 310 309 304 301 300 298 300 300 300 302 301 299 296 300 295 291 288 287 298 303 308 316 327 333 345 4 325 237
281 285 291 295 298 296 300 305 299 289 293 299 303 304 306 307 305 302 301 296 294 295 295 295 297 296 297 297 300 296 293 291 293 293 298 303 309 320 326 334 347 336 296
284 287 291 293 294 291 292 303 290 291 292 293 298 302 304 303 302 298 294 294 290 289 290 290 289 288 292 294 298 299 289 289 291 291 292 296 302 309 322 327 333 353 330
282 286 287 292 292 297 298 294 294 300 294 291 291 297 296 296 293 293 293 291 288 289 289 289 289 289 291 292 292 291 292 289 288 287 287 290 296 303 310 313 319 322 347
282 285 288 290 293 292 290 289 293 289 286 285 287 289 291 290 290 288 287 286 287 286 285 287 287 289 293 294 292 289 289 288 287 285 286 287 288 293 299 305 311 314 313
285 287 288 289 288 285 284 286 288 284 282 282 285 286 287 288 287 286 287 290 288 284 283 284 285 286 288 289 290 290 289 289 288 287 285 286 286 286 290 295 299 305 308
287 287 288 287 286 287 287 288 286 284 285 286 287 284 283 283 282 284 288 292 288 284 283 281 281 282 284 286 287 288 288 286 285 284 283 283 283 280 280 281 284 284 288
290 296 294 287 287 289 289 289 289 290 289 289 287 282 279 278 278 282 286 289 287 284 283 283 284 285 286 287 287 287 288 289 285 280 279 279 277 277 274 271 272 278 278
298 305 297 289 285 287 290 293 296 296 295 293 288 284 282 281 281 281 284 286 281 283 285 284 284 285 286 286 287 287 286 284 282 278 274 272 269 267 269 269 267 267 269